OneWeb SL0394

operational
NORAD ID: 50474 Int'l Des: 2021-132 Owner: ONEWEBN Country: UK Constellation: oneweb
LEOCIRCULARPOLARONEWEB_TYPE

关于 OneWeb SL0394

正在加载描述...

实时位置

正在加载3D地球...

即将过境

高度历史

Altitude vs Time

uPlot chart will show altitude changes over time

两行轨道根数

1 50474U 21132F 26036.37624304 .00000080 00000-0 17037-3 0 9994
2 50474 87.9223 1.6067 0001950 78.4418 281.6932 13.18686703204224
Epoch: Feb 5, 2026 • Age: 9 hours

当前状态

高度 1201.0 km
速度 7.26 km/s
星下点 73.87°N, 44.85°W
发射日期 Dec 27, 2021
运行时间 4.1 years
类型 internet

技术详情

分类 Payload
质量 148.00 kg
干质量 140.00 kg
总质量 148.00 kg
长度 1.30 m
直径 1.00 m
跨度 5.00 m
形状 Trapezoid+2 pan
制造商 ONEWUS
平台类型 ARROW
阶段状态 In Orbit
所有者/国家 ONEWEBN/UK

大型星座

Loading constellations...